Location: Bermeries
(50.2863°N, 3.7551°E)
Time: 02:17:36
(UTC+00:00)

Cosmos 1242 Rocket - Pass Details

Date: 23 May 2024
Orbit: 321 x 335 km, 81.1° (Epoch: 16 June)

Event Time Altitude Azimuth Distance (km) Brightness Sun altitude
Exits shadow 02:41:46 12° 238° (WSW) 1,244 4.0 -8.7°
Maximum altitude 02:43:53 23° 290° (WNW) 832 3.5 -8.5°
Drops below altitude 10° 02:46:22 10° 347° (NNW) 1,378 5.4 -8.2°
Sets 02:48:37 0° 2° (N) 2,236 6.8 -8.0°
